小惑星2011 WR74

2011 WR74

English version
Home page
Updated on January 23, 2012

---------------------------------------------------------------------

・ プロフィール

発見日 2011年11月25日
発見光度 22.5等
発見者 Pan-STARRS 1 telescope (Haleakala)

・ 軌道要素

The following orbital elements are taken from MPO218133

Epoch 2011 Dec. 5.0 TT = JDT 2455900.5                  MPC
M   7.85162              (2000.0)            P               Q
n   0.03532741     Peri.  263.28263     +0.77138849     -0.62245059
a   9.1987365      Node   135.10556     +0.63236942     +0.72651823
e   0.4344069      Incl.   10.80746     +0.07119498     +0.29107822
P  27.9            H   15.3           G   0.15
From 15 observations 2011 Nov. 25-Dec. 24.

・ 光度変化

        H = 15.3  G = 0.15

---------------------------------------------------------------------

軌道要素はMPCのEphemerides and Orbital Elementsに掲載されたものです。
光度グラフはComet for Windowsで作成したものです。

---------------------------------------------------------------------

Copyright(C) Seiichi Yoshida (comet@aerith.net). All rights reserved.